| time (UTC) | temp C | wind direction | speed KPH | gust KPH | rain 1hr cm | rain 24hr cm | rain mn cm | humidity % | barometer mb |
| 20260506001528 | 12 | 96 | 8.0 | 22.5 | 0.00 | 0.20 | 0.20 | 57 | 1006.3 |
| 20260506000531 | 12 | 203 | 14.5 | 22.5 | 0.00 | 0.20 | 0.20 | 57 | 1006.2 |
| 20260505235521 | 12 | 47 | 12.9 | 19.3 | 0.00 | 0.20 | 0.20 | 57 | 1006.1 |
| 20260505234634 | 13 | 346 | 14.5 | 22.5 | 0.00 | 0.20 | 0.20 | 57 | 1005.6 |
| 20260505233522 | 13 | 131 | 14.5 | 19.3 | 0.00 | 0.20 | 0.20 | 58 | 1005.6 |
| 20260505232531 | 13 | 314 | 14.5 | 24.1 | 0.00 | 0.20 | 0.20 | 58 | 1005.6 |
| 20260505231520 | 13 | 342 | 17.7 | 32.2 | 0.00 | 0.20 | 0.20 | 57 | 1005.4 |
| 20260505230519 | 13 | 335 | 17.7 | 32.2 | 0.00 | 0.20 | 0.20 | 57 | 1005.2 |
| 20260505225522 | 13 | 104 | 11.3 | 17.7 | 0.00 | 0.20 | 0.20 | 60 | 1004.9 |
| 20260505224525 | 13 | 193 | 6.4 | 19.3 | 0.00 | 0.20 | 0.20 | 62 | 1004.7 |
| 20260505223524 | 13 | 164 | 8.0 | 19.3 | 0.00 | 0.20 | 0.20 | 64 | 1004.8 |
| 20260505222523 | 14 | 42 | 16.1 | 32.2 | 0.00 | 0.20 | 0.20 | 60 | 1004.8 |
| 20260505221531 | 15 | 252 | 16.1 | 32.2 | 0.00 | 0.20 | 0.20 | 57 | 1004.5 |
| 20260505220625 | 15 | 358 | 12.9 | 22.5 | 0.00 | 0.20 | 0.20 | 56 | 1004.2 |
| 20260505215524 | 16 | 130 | 11.3 | 24.1 | 0.00 | 0.20 | 0.20 | 56 | 1004.1 |
| 20260505214519 | 16 | 353 | 11.3 | 19.3 | 0.00 | 0.20 | 0.20 | 58 | 1003.8 |
| 20260505213522 | 16 | 39 | 14.5 | 24.1 | 0.00 | 0.20 | 0.20 | 58 | 1003.3 |
| 20260505212524 | 16 | 252 | 16.1 | 32.2 | 0.00 | 0.20 | 0.20 | 58 | 1003.1 |
| 20260505211526 | 17 | 96 | 19.3 | 32.2 | 0.00 | 0.20 | 0.20 | 58 | 1003.1 |
| 20260505210522 | 17 | 11 | 16.1 | 32.2 | 0.00 | 0.20 | 0.20 | 59 | 1002.8 |
| 20260505205640 | 17 | 53 | 12.9 | 24.1 | 0.00 | 0.20 | 0.20 | 59 | 1002.5 |
| 20260505204528 | 17 | 251 | 14.5 | 24.1 | 0.00 | 0.20 | 0.20 | 60 | 1002.4 |
| 20260505203531 | 18 | 77 | 19.3 | 24.1 | 0.00 | 0.20 | 0.20 | 60 | 1002.2 |
| 20260505202526 | 18 | 9 | 9.7 | 19.3 | 0.00 | 0.20 | 0.20 | 61 | 1001.8 |
| 20260505201655 | 18 | 179 | 14.5 | 24.1 | 0.00 | 0.20 | 0.20 | 62 | 1001.8 |
| 20260505200523 | 18 | 326 | 8.0 | 12.9 | 0.00 | 0.20 | 0.20 | 62 | 1001.6 |
| 20260505195532 | 18 | 46 | 14.5 | 22.5 | 0.00 | 0.20 | 0.20 | 62 | 1001.5 |
| 20260505194520 | 18 | 9 | 16.1 | 32.2 | 0.00 | 0.20 | 0.20 | 65 | 1001.4 |
| 20260505193521 | 18 | 21 | 19.3 | 29.0 | 0.00 | 0.20 | 0.20 | 65 | 1001.3 |
| 20260505192529 | 18 | 78 | 20.9 | 29.0 | 0.00 | 0.20 | 0.20 | 66 | 1001.2 |
| 20260505191626 | 18 | 357 | 9.7 | 19.3 | 0.00 | 0.20 | 0.20 | 67 | 1001.1 |
| 20260505190523 | 18 | 26 | 19.3 | 29.0 | 0.00 | 0.20 | 0.20 | 69 | 1001.0 |
| 20260505185523 | 19 | 121 | 20.9 | 32.2 | 0.00 | 0.20 | 0.20 | 70 | 1000.8 |
| 20260505184520 | 18 | 31 | 17.7 | 24.1 | 0.00 | 0.20 | 0.20 | 71 | 1000.8 |
| 20260505183520 | 18 | 67 | 20.9 | 29.0 | 0.00 | 0.20 | 0.20 | 74 | 1000.9 |
| 20260505182522 | 18 | 115 | 16.1 | 46.7 | 0.00 | 0.20 | 0.20 | 75 | 1000.9 |
| 20260505181523 | 18 | 303 | 16.1 | 27.4 | 0.10 | 0.20 | 0.20 | 74 | 1000.5 |
| 20260505180642 | 18 | 279 | 16.1 | 29.0 | 0.20 | 0.20 | 0.20 | 74 | 1000.4 |
| 20260505175524 | 18 | 355 | 17.7 | 32.2 | 0.20 | 0.20 | 0.20 | 74 | 1000.3 |
| 20260505174523 | 18 | 360 | 20.9 | 32.2 | 0.20 | 0.20 | 0.20 | 76 | 1000.0 |
| 20260505173532 | 18 | 351 | 22.5 | 33.8 | 0.20 | 0.20 | 0.20 | 78 | 1000.1 |
| 20260505172522 | 18 | 298 | 19.3 | 43.5 | 0.20 | 0.20 | 0.20 | 81 | 999.9 |
| 20260505171528 | 20 | 173 | 24.1 | 32.2 | 0.10 | 0.10 | 0.10 | 70 | 1000.1 |
| 20260505170525 | 22 | 348 | 16.1 | 29.0 | 0.00 | 0.00 | 0.00 | 61 | 999.6 |
| 20260505165520 | 22 | 150 | 22.5 | 48.3 | 0.00 | 0.00 | 0.00 | 60 | 999.4 |
| 20260505164533 | 23 | 46 | 27.4 | 41.8 | 0.00 | 0.00 | 0.00 | 59 | 999.4 |
| 20260505163522 | 23 | 279 | 25.7 | 43.5 | 0.00 | 0.00 | 0.00 | 59 | 999.4 |
| 20260505162711 | 23 | 146 | 24.1 | 43.5 | 0.00 | 0.00 | 0.00 | 61 | 999.2 |
| 20260505161623 | 22 | 167 | 20.9 | 29.0 | 0.00 | 0.00 | 0.00 | 64 | 999.3 |
| 20260505160529 | 22 | 220 | 19.3 | 32.2 | 0.00 | 0.00 | 0.00 | 66 | 999.2 |
| 20260505152523 | 20 | 186 | 12.9 | 24.1 | 0.00 | 0.00 | 0.00 | 71 | 999.4 |
| 20260505151525 | 20 | 143 | 12.9 | 29.0 | 0.00 | 0.00 | 0.00 | 72 | 999.4 |
| 20260505150521 | 19 | 240 | 16.1 | 27.4 | 0.00 | 0.00 | 0.00 | 73 | 999.7 |
| 20260505140534 | 16 | 291 | 14.5 | 29.0 | 0.00 | 0.00 | 0.00 | 80 | 999.7 |
| 20260505124523 | 16 | 83 | 12.9 | 19.3 | 0.00 | 0.00 | 0.00 | 80 | 999.8 |
| 20260505123529 | 16 | 164 | 12.9 | 24.1 | 0.00 | 0.00 | 0.00 | 79 | 999.8 |
| 20260505122520 | 16 | 225 | 17.7 | 29.0 | 0.00 | 0.00 | 0.00 | 79 | 999.9 |
| 20260505121521 | 16 | 201 | 16.1 | 32.2 | 0.00 | 0.00 | 0.00 | 78 | 999.9 |
| 20260505120524 | 16 | 173 | 19.3 | 33.8 | 0.00 | 0.00 | 0.00 | 78 | 999.9 |
| 20260505115524 | 16 | 62 | 14.5 | 24.1 | 0.00 | 0.00 | 0.00 | 78 | 1000.0 |
| 20260505114526 | 16 | 187 | 14.5 | 37.0 | 0.00 | 0.00 | 0.00 | 78 | 1000.0 |
| 20260505113521 | 16 | 211 | 17.7 | 32.2 | 0.00 | 0.00 | 0.00 | 78 | 999.8 |
| 20260505112529 | 15 | 182 | 14.5 | 22.5 | 0.00 | 0.00 | 0.00 | 78 | 999.7 |
| 20260505111521 | 15 | 125 | 17.7 | 33.8 | 0.00 | 0.00 | 0.00 | 78 | 999.6 |
| 20260505110520 | 15 | 46 | 16.1 | 29.0 | 0.00 | 0.00 | 0.00 | 78 | 999.5 |
| 20260505101523 | 14 | 184 | 12.9 | 19.3 | 0.00 | 0.00 | 0.00 | 78 | 999.2 |
| 20260505100529 | 14 | 171 | 14.5 | 29.0 | 0.00 | 0.00 | 0.00 | 78 | 999.2 |
| 20260505095526 | 14 | 85 | 14.5 | 24.1 | 0.00 | 0.00 | 0.00 | 78 | 999.1 |
| 20260505093527 | 14 | 145 | 16.1 | 37.0 | 0.00 | 0.05 | 0.00 | 78 | 999.0 |
| 20260505092532 | 13 | 190 | 14.5 | 37.0 | 0.00 | 0.08 | 0.00 | 77 | 999.0 |
| 20260505091524 | 13 | 148 | 9.7 | 19.3 | 0.00 | 0.10 | 0.00 | 77 | 999.1 |
| 20260505090625 | 13 | 173 | 12.9 | 27.4 | 0.00 | 0.10 | 0.00 | 77 | 999.1 |
| 20260505085643 | 13 | 179 | 14.5 | 22.5 | 0.00 | 0.10 | 0.00 | 76 | 999.3 |
| 20260505084527 | 13 | 147 | 12.9 | 24.1 | 0.00 | 0.10 | 0.00 | 76 | 999.3 |
| 20260505083523 | 13 | 174 | 16.1 | 27.4 | 0.00 | 0.10 | 0.00 | 75 | 999.4 |
| 20260505081525 | 13 | 136 | 16.1 | 27.4 | 0.00 | 0.10 | 0.00 | 72 | 999.5 |
| 20260505080522 | 13 | 201 | 8.0 | 27.4 | 0.00 | 0.10 | 0.00 | 71 | 999.7 |
| 20260505075532 | 13 | 194 | 12.9 | 24.1 | 0.00 | 0.10 | 0.00 | 70 | 999.8 |
| 20260505074521 | 13 | 198 | 4.8 | 22.5 | 0.00 | 0.10 | 0.00 | 69 | 999.8 |
| 20260505073527 | 13 | 219 | 8.0 | 12.9 | 0.00 | 0.10 | 0.00 | 69 | 999.7 |
| 20260505072530 | 13 | 197 | 9.7 | 27.4 | 0.00 | 0.10 | 0.00 | 69 | 999.8 |
| 20260505071527 | 13 | 131 | 6.4 | 19.3 | 0.00 | 0.10 | 0.00 | 70 | 999.9 |
| 20260505070524 | 13 | 142 | 3.2 | 12.9 | 0.00 | 0.10 | 0.00 | 69 | 999.9 |
| 20260505065522 | 13 | 176 | 4.8 | 14.5 | 0.00 | 0.10 | 0.00 | 69 | 999.8 |
| 20260505064630 | 13 | 178 | 8.0 | 14.5 | 0.00 | 0.10 | 0.00 | 69 | 999.8 |
| 20260505062527 | 13 | 133 | 9.7 | 22.5 | 0.00 | 0.15 | 0.00 | 70 | 1000.0 |
| 20260505061527 | 12 | 70 | 3.2 | 14.5 | 0.00 | 0.15 | 0.00 | 71 | 1000.0 |
| 20260505060520 | 13 | 181 | 8.0 | 19.3 | 0.00 | 0.15 | 0.00 | 71 | 1000.1 |
| 20260505055530 | 13 | 179 | 6.4 | 19.3 | 0.00 | 0.15 | 0.00 | 71 | 1000.1 |
| 20260505054523 | 13 | 186 | 8.0 | 19.3 | 0.00 | 0.15 | 0.00 | 70 | 1000.1 |
| 20260505053530 | 13 | 203 | 3.2 | 14.5 | 0.00 | 0.15 | 0.00 | 69 | 1000.2 |
| 20260505052519 | 13 | 164 | 6.4 | 17.7 | 0.00 | 0.15 | 0.00 | 69 | 1000.3 |
| 20260505051548 | 13 | 158 | 1.6 | 12.9 | 0.00 | 0.15 | 0.00 | 69 | 1000.5 |
| 20260505050529 | 13 | 151 | 3.2 | 12.9 | 0.00 | 0.15 | 0.00 | 69 | 1000.5 |
| 20260505041520 | 14 | 170 | 8.0 | 22.5 | 0.00 | 0.15 | 0.00 | 70 | 1000.9 |
| 20260505040528 | 14 | 195 | 8.0 | 22.5 | 0.00 | 0.15 | 0.00 | 69 | 1001.0 |
| 20260505035523 | 14 | 165 | 9.7 | 17.7 | 0.00 | 0.15 | 0.15 | 69 | 1001.1 |
| 20260505034646 | 14 | 175 | 9.7 | 19.3 | 0.00 | 0.15 | 0.15 | 69 | 1001.1 |
| 20260505033521 | 15 | 182 | 3.2 | 9.7 | 0.00 | 0.15 | 0.15 | 68 | 1001.1 |
| 20260505032521 | 15 | 201 | 4.8 | 14.5 | 0.00 | 0.15 | 0.15 | 66 | 1001.1 |
| 20260505031522 | 15 | 203 | 1.6 | 12.9 | 0.00 | 0.15 | 0.15 | 65 | 1001.2 |
| 20260505030521 | 15 | 144 | 6.4 | 17.7 | 0.00 | 0.15 | 0.15 | 65 | 1001.2 |
| 20260505025520 | 16 | 122 | 11.3 | 17.7 | 0.00 | 0.15 | 0.15 | 64 | 1001.2 |
| 20260505024537 | 16 | 113 | 4.8 | 14.5 | 0.00 | 0.15 | 0.15 | 64 | 1001.2 |
| 20260505023526 | 16 | 148 | 11.3 | 22.5 | 0.00 | 0.15 | 0.15 | 64 | 1001.2 |
| 20260505022635 | 16 | 180 | 12.9 | 22.5 | 0.00 | 0.15 | 0.15 | 66 | 1001.1 |
| 20260505021526 | 16 | 203 | 6.4 | 17.7 | 0.00 | 0.15 | 0.15 | 66 | 1001.3 |
| 20260505020531 | 16 | 195 | 12.9 | 22.5 | 0.00 | 0.15 | 0.15 | 65 | 1001.4 |
| 20260505015522 | 16 | 136 | 9.7 | 24.1 | 0.00 | 0.15 | 0.15 | 65 | 1001.3 |
| 20260505014534 | 16 | 136 | 9.7 | 22.5 | 0.00 | 0.15 | 0.15 | 65 | 1001.4 |
| 20260505013524 | 16 | 206 | 11.3 | 19.3 | 0.00 | 0.15 | 0.15 | 65 | 1001.4 |
| 20260505012523 | 17 | 188 | 9.7 | 22.5 | 0.00 | 0.15 | 0.15 | 64 | 1001.5 |
| 20260505011535 | 17 | 164 | 4.8 | 14.5 | 0.00 | 0.15 | 0.15 | 64 | 1001.4 |
| 20260505010524 | 17 | 152 | 3.2 | 17.7 | 0.00 | 0.15 | 0.15 | 63 | 1001.4 |
| 20260505005538 | 17 | 157 | 11.3 | 19.3 | 0.00 | 0.15 | 0.15 | 63 | 1001.3 |
| 20260505004522 | 17 | 189 | 9.7 | 24.1 | 0.00 | 0.15 | 0.15 | 63 | 1001.2 |
| 20260505003525 | 17 | 152 | 16.1 | 33.8 | 0.00 | 0.15 | 0.15 | 63 | 1001.1 |
| 20260505002519 | 17 | 223 | 14.5 | 22.5 | 0.00 | 0.15 | 0.15 | 62 | 1001.1 |